User: anonymous   Login
Location: Newark
(55.7083°N, 13.1992°E)
Time: 08:10:00
(UTC+00:00)
Language:

Transit 4A - Orbit

View from above orbital plane
View from above orbital plane
View from above satellite
View from above satellite

Ground track
Ground track

The orbit data is extracted from the following two-line orbital elements,

1 00116U 61015A   21168.88365931 -.00000063  00000-0  10600-4 0  9993
2 00116  66.8109  34.8634 0069258 115.0383 245.7907 13.91791946 42661
Epoch (UTC): 17 June 2021 21:12:28
Eccentricity: 0.0069258
inclination: 66.8109°
perigee height: 872 km
apogee height: 973 km
right ascension of ascending node: 34.8634°
argument of perigee: 115.0383°
revolutions per day: 13.91791946
mean anomaly at epoch: 245.7907°
orbit number at epoch: 4266

The dashed part of the orbit path shows where the satellite is in the earth's shadow,  

DLR